Regional Weather Roundup
Issued by NWS

Home | Current Version | Previous Version | Graphics & Text | Print | Product List | Glossary On
Versions: 1 2 3 4 5 6 7 8 9 10 11 12 13 14 15 16 17 18 19 20 21 22 23 24 25 26 27 28 29 30 31 32 33 34 35 36 37 38 39 40 41 42 43 44 45 46 47 48 49 50
109
ASUS44 KLIX 280401
RWRLA
LOUISIANA WEATHER ROUNDUP
NATIONAL WEATHER SERVICE NEW ORLEANS LA
1000 PM CST FRI FEB 27 2015

NOTE: "FAIR" INDICATES FEW OR NO CLOUDS BELOW 12,000 FEET WITH NO
      SIGNIFICANT WEATHER AND/OR OBSTRUCTIONS TO VISIBILITY.
      SKY/WX - SKY CONDITION AND SIGNIFICANT WEATHER.
      TMP - AIR TEMPERATURE.    DP   - DEWPOINT TEMPERATURE.
      RH  - RELATIVE HUMIDITY.  PRES - PRESSURE.
      HX  - HEAT INDEX.         WCI  - WIND CHILL INDEX.

*  THESE STATIONS ARE NOT NWS OR FAA STATIONS AND ARE NOT UNDER
   NWS QUALITY CONTROL.

LAZ040-048-061>063-065-066-069-280500-
SOUTHEAST LOUISIANA

CITY           SKY/WX    TMP DP  RH WIND       PRES   REMARKS
N.O. AUDUBON     N/A     47  36  65 MISG        N/A
N.O. INTL ARPT MOCLDY    46  34  62 NE12      30.40S
N.O. LAKEFRONT CLEAR     50  34  54 NE17      30.41R
SLIDELL        CLEAR     38  33  82 N5        30.40R WCI  34
BATON ROUGE    CLEAR     41  31  67 N6        30.43R
BOOTHVILLE     PTCLDY    49  41  74 N8        30.37R
BELLE CHASSE   PTCLDY    46  31  55 N7        30.39S
BOGALUSA*        N/A     42  31  66 NE5       30.43R
GALLIANO*      MOCLDY    48  36  63 MISG      30.39R
NEW ROADS*     NOT AVBL
GONZALES*      NOT AVBL
HAMMOND*       NOT AVBL
HOUMA*         PTCLDY    43  35  72 N8        30.41R
PORT FOURCHON* NOT AVBL

$$

LAZ041-044-053-054-280500-
SOUTHWEST LOUISIANA

CITY           SKY/WX    TMP DP  RH WIND       PRES   REMARKS
LAKE CHARLES   CLEAR     40  31  70 NE14      30.43R WCI  32
LAFAYETTE      CLEAR     38  30  73 N12       30.44R WCI  30
PATTERSON      CLEAR     45  34  65 NE9       30.42R
SALT POINT       N/A     44  35  70 VRB3      30.39R
NEW IBERIA     CLEAR     40  31  70 N10       30.44R WCI  33
CHENAULT AIRPK CLEAR     39  31  73 NE10G18   30.44R WCI  32

$$

LAZ027-028-280500-
CENTRAL LOUISIANA

CITY           SKY/WX    TMP DP  RH WIND       PRES   REMARKS
FORT POLK      CLOUDY    35  24  66 VRB7G17   30.45R WCI  29
ALEXANDRIA INT MOCLDY    34  25  69 NE8       30.47R WCI  27
ALEXANDRIA     MOCLDY    36  24  62 VRB3      30.48R

$$

LAZ001-002-280500-
NORTHWEST LOUISIANA

CITY           SKY/WX    TMP DP  RH WIND       PRES   REMARKS
SHREVEPORT     CLOUDY    34  22  61 NE9       30.47R WCI  27
BARKSDALE AFB  CLOUDY    33  21  60 VRB3      30.49R
DTN SHREVEPORT CLOUDY    33  19  56 NE6       30.49R WCI  28

$$

LAZ014-016-280500-
NORTHEAST LOUISIANA

CITY           SKY/WX    TMP DP  RH WIND       PRES   REMARKS
MONROE         CLOUDY    32  24  72 NE6       30.52S WCI  26
TALLULAH       CLOUDY    34  25  69 NE13      30.51R WCI  25

$$




USA.gov is the U.S. government's official web portal to all federal, state and local government web resources and services.